CW8192 Weather Reports


Display with metric or nautical units.
time (UTC)temp
F
wind
direction
speed
MPH
gust
MPH
rain 1hr
in
rain 24hr
in
rain mn
in
humidity
%
barometer
mb
20260505095706 60 213 3.0 12.0 0.00 0.00 0.00 66 1007.2
20260505095205 59 191 6.0 15.0 0.00 0.00 0.00 67 1006.7
20260505094704 60 213 6.0 10.0 0.00 0.00 0.00 67 1006.7
20260505094204 60 185 8.0 15.0 0.00 0.00 0.00 66 1006.5
20260505093704 60 208 6.0 18.0 0.00 0.00 0.00 66 1006.5
20260505093205 60 198 6.0 20.0 0.00 0.00 0.00 65 1006.5
20260505092705 60 200 7.0 16.0 0.00 0.00 0.00 65 1006.5
20260505092204 60 201 7.0 14.0 0.00 0.00 0.00 65 1006.4
20260505091705 60 202 9.0 14.0 0.00 0.00 0.00 65 1006.3
20260505091205 60 202 9.0 15.0 0.00 0.00 0.00 66 1006.2
20260505090204 60 206 6.0 15.0 0.00 0.00 0.00 65 1006.2
20260505085705 60 196 7.0 14.0 0.00 0.00 0.00 65 1006.3
20260505085205 60 209 6.0 18.0 0.00 0.00 0.00 65 1006.3
20260505084705 60 191 7.0 15.0 0.00 0.00 0.00 64 1006.3
20260505084204 60 199 5.0 12.0 0.00 0.00 0.00 65 1006.4
20260505083704 60 193 10.0 18.0 0.00 0.00 0.00 65 1006.4
20260505083205 60 201 6.0 16.0 0.00 0.00 0.00 65 1006.5
20260505082704 60 212 5.0 12.0 0.00 0.00 0.00 65 1006.6
20260505081704 60 203 6.0 13.0 0.00 0.00 0.00 65 1006.6
20260505081205 60 201 6.0 15.0 0.00 0.00 0.00 65 1006.7
20260505080204 60 197 7.0 12.0 0.00 0.00 0.00 65 1006.6
20260505075704 60 192 5.0 12.0 0.00 0.00 0.00 64 1006.6
20260505075204 60 224 5.0 13.0 0.00 0.00 0.00 64 1006.6
20260505074704 60 200 6.0 14.0 0.00 0.00 0.00 64 1006.5
20260505074204 60 188 7.0 14.0 0.00 0.00 0.00 64 1006.5
20260505073704 60 187 6.0 13.0 0.00 0.00 0.00 64 1006.5
20260505073204 60 191 6.0 15.0 0.00 0.00 0.00 63 1006.4
20260505072704 60 190 5.0 17.0 0.00 0.00 0.00 63 1006.5
20260505071704 61 193 6.0 20.0 0.00 0.00 0.00 62 1006.4
20260505070705 60 188 6.0 13.0 0.00 0.00 0.00 63 1006.6
20260505070205 60 180 6.0 17.0 0.00 0.00 0.00 63 1006.5
20260505065704 60 199 7.0 17.0 0.00 0.00 0.00 63 1006.5
20260505065204 60 196 7.0 17.0 0.00 0.00 0.00 63 1006.5
20260505064704 60 207 6.0 15.0 0.00 0.00 0.00 63 1006.6
20260505064204 60 186 7.0 13.0 0.00 0.00 0.00 63 1006.7
20260505063705 60 201 8.0 14.0 0.00 0.00 0.00 62 1006.6
20260505063204 60 184 7.0 15.0 0.00 0.00 0.00 62 1006.6
20260505062704 61 206 9.0 16.0 0.00 0.00 0.00 62 1006.6
20260505062204 61 195 9.0 18.0 0.00 0.00 0.00 62 1006.6
20260505061204 60 207 7.0 16.0 0.00 0.00 0.00 62 1006.6
20260505060704 61 193 6.0 14.0 0.00 0.00 0.00 62 1006.8
20260505060204 61 204 6.0 16.0 0.00 0.00 0.00 62 1006.9
20260505055704 61 178 8.0 15.0 0.00 0.00 0.00 62 1007.0
20260505055205 61 204 7.0 15.0 0.00 0.00 0.00 62 1006.9
20260505054704 61 197 9.0 13.0 0.00 0.00 0.00 62 1007.0
20260505054204 61 200 7.0 15.0 0.00 0.00 0.00 62 1007.0
20260505053704 61 196 7.0 14.0 0.00 0.00 0.00 61 1006.9
20260505053205 61 208 5.0 12.0 0.00 0.00 0.00 61 1007.0
20260505052705 61 206 10.0 20.0 0.00 0.00 0.00 61 1006.9
20260505052205 62 196 7.0 22.0 0.00 0.00 0.00 61 1007.0
20260505051704 62 198 8.0 16.0 0.00 0.00 0.00 61 1007.0
20260505051204 62 200 7.0 15.0 0.00 0.00 0.00 61 1007.0
20260505050204 61 197 6.0 13.0 0.00 0.00 0.00 62 1007.0
20260505041705 62 206 5.0 12.0 0.00 0.00 0.00 61 1006.9
20260505041204 62 204 7.0 14.0 0.00 0.00 0.00 61 1006.9
20260505040705 62 216 6.0 18.0 0.00 0.00 0.00 61 1006.9
20260505040204 62 214 6.0 12.0 0.00 0.00 0.00 61 1006.9
20260505035204 62 203 7.0 17.0 0.00 0.00 0.00 60 1006.9
20260505034704 62 205 5.0 17.0 0.00 0.00 0.00 59 1006.9
20260505034204 62 198 6.0 13.0 0.00 0.00 0.00 59 1007.0
20260505033704 62 198 9.0 16.0 0.00 0.00 0.00 59 1007.0
20260505033204 62 199 7.0 16.0 0.00 0.00 0.00 58 1007.0
20260505032705 62 191 5.0 14.0 0.00 0.00 0.00 58 1007.0
20260505032204 62 191 6.0 12.0 0.00 0.00 0.00 59 1007.0
20260505031205 62 192 9.0 17.0 0.00 0.00 0.00 58 1007.0
20260505030704 62 212 7.0 14.0 0.00 0.00 0.00 58 1007.0
20260505030204 63 189 5.0 10.0 0.00 0.00 0.00 58 1007.0
20260505025704 62 221 6.0 12.0 0.00 0.00 0.00 58 1007.0
20260505025204 63 198 6.0 15.0 0.00 0.00 0.00 58 1006.9
20260505024705 63 204 5.0 12.0 0.00 0.00 0.00 57 1006.9
20260505023704 63 204 5.0 10.0 0.00 0.00 0.00 57 1007.0
20260505022704 63 201 7.0 12.0 0.00 0.00 0.00 57 1007.1
20260505022204 63 220 4.0 12.0 0.00 0.00 0.00 57 1007.2
20260505021204 63 194 5.0 14.0 0.00 0.00 0.00 57 1007.2
20260505020705 63 198 6.0 12.0 0.00 0.00 0.00 57 1007.1
20260505020204 62 190 6.0 14.0 0.00 0.00 0.00 58 1007.2
20260505015704 63 217 6.0 14.0 0.00 0.00 0.00 57 1007.1
20260505015204 63 199 7.0 14.0 0.00 0.00 0.00 57 1007.2
20260505014704 63 217 6.0 12.0 0.00 0.00 0.00 57 1007.2
20260505014204 63 207 7.0 18.0 0.00 0.00 0.00 57 1007.0
20260505012705 63 180 5.0 9.0 0.00 0.00 0.00 57 1006.9
20260505012204 63 193 5.0 12.0 0.00 0.00 0.00 57 1006.9
20260505011703 63 193 5.0 9.0 0.00 0.00 0.00 56 1006.7
20260505011204 63 197 5.0 9.0 0.00 0.00 0.00 56 1006.8
20260505010704 63 207 5.0 12.0 0.00 0.00 0.00 55 1006.7
20260505010204 63 200 6.0 12.0 0.00 0.00 0.00 55 1006.7
20260505005704 63 197 6.0 12.0 0.00 0.00 0.00 55 1006.6
20260505005204 64 192 4.0 12.0 0.00 0.00 0.00 55 1006.5
20260505004704 64 196 5.0 12.0 0.00 0.00 0.00 54 1006.5
20260505004204 64 192 5.0 9.0 0.00 0.00 0.00 54 1006.6
20260505003704 64 196 4.0 8.0 0.00 0.00 0.00 54 1006.6
20260505003204 64 193 5.0 9.0 0.00 0.00 0.00 54 1006.5
20260505002704 64 204 5.0 9.0 0.00 0.00 0.00 53 1006.4
20260505002204 64 209 4.0 10.0 0.00 0.00 0.00 53 1006.5
20260505001704 65 199 3.0 10.0 0.00 0.00 0.00 52 1006.4
20260505001204 65 208 3.0 9.0 0.00 0.00 0.00 52 1006.4
20260505000704 65 208 4.0 8.0 0.00 0.00 0.00 52 1006.2
20260505000204 65 206 6.0 12.0 0.00 0.00 0.00 53 1006.1
20260504235704 65 199 4.0 8.0 0.00 0.00 0.00 53 1006.1
20260504234704 66 210 3.0 6.0 0.00 0.00 0.00 52 1006.0
20260504234204 66 202 3.0 10.0 0.00 0.00 0.00 51 1005.9
20260504233705 66 209 4.0 8.0 0.00 0.00 0.00 52 1006.0
20260504233204 66 203 4.0 7.0 0.00 0.00 0.00 51 1005.8
20260504232704 67 205 4.0 9.0 0.00 0.00 0.00 51 1005.8
20260504231704 67 212 5.0 10.0 0.00 0.00 0.00 51 1005.7
20260504231204 67 194 5.0 13.0 0.00 0.00 0.00 50 1005.7
20260504230704 67 211 3.0 8.0 0.00 0.00 0.00 49 1005.7
20260504225705 68 226 6.0 12.0 0.00 0.00 0.00 48 1005.5
20260504225205 69 229 4.0 10.0 0.00 0.00 0.00 47 1005.4
20260504224705 69 233 7.0 13.0 0.00 0.00 0.00 48 1005.3
20260504224205 69 214 4.0 10.0 0.00 0.00 0.00 47 1005.3
20260504223705 70 230 3.0 7.0 0.00 0.00 0.00 48 1005.3
20260504223205 70 258 4.0 6.0 0.00 0.00 0.00 46 1005.2
20260504222705 70 222 6.0 10.0 0.00 0.00 0.00 47 1005.2
20260504222206 70 232 5.0 9.0 0.00 0.00 0.00 47 1005.2
20260504221705 70 228 4.0 7.0 0.00 0.00 0.00 47 1005.2
20260504220706 71 217 3.0 6.0 0.00 0.00 0.00 48 1005.3
20260504220207 71 261 4.0 8.0 0.00 0.00 0.00 48 1005.4
20260504215705 71 250 3.0 7.0 0.00 0.00 0.00 47 1005.5
20260504215205 71 217 3.0 7.0 0.00 0.00 0.00 47 1005.4
20260504214205 71 243 5.0 9.0 0.00 0.00 0.00 48 1005.6
20260504213705 72 252 6.0 10.0 0.00 0.00 0.00 48 1005.6
20260504212705 71 243 4.0 7.0 0.00 0.00 0.00 47 1005.6
20260504211706 71 277 5.0 12.0 0.00 0.00 0.00 48 1005.6
20260504211205 72 217 7.0 12.0 0.00 0.00 0.00 46 1005.6
20260504210706 72 264 6.0 10.0 0.00 0.00 0.00 46 1005.6
20260504210205 72 257 6.0 10.0 0.00 0.00 0.00 47 1005.6
20260504205706 72 249 6.0 12.0 0.00 0.00 0.00 47 1005.7
20260504205205 73 255 5.0 10.0 0.00 0.00 0.00 47 1005.7
20260504204205 73 247 5.0 8.0 0.00 0.00 0.00 46 1005.7
20260504203705 72 274 3.0 7.0 0.00 0.00 0.00 48 1005.7
20260504203205 72 276 4.0 8.0 0.00 0.00 0.00 48 1005.7
20260504202205 71 265 8.0 12.0 0.00 0.00 0.00 48 1005.9
20260504201705 70 262 7.0 12.0 0.00 0.00 0.00 50 1006.0
20260504201205 70 274 3.0 12.0 0.00 0.00 0.00 49 1006.1
20260504200706 70 266 6.0 12.0 0.00 0.00 0.00 48 1006.0
20260504200206 71 243 7.0 12.0 0.00 0.00 0.00 50 1006.1
20260504195705 70 248 5.0 7.0 0.00 0.00 0.00 49 1006.1
20260504195205 70 254 5.0 9.0 0.00 0.00 0.00 50 1006.2
20260504194705 70 257 5.0 10.0 0.00 0.00 0.00 48 1006.2
20260504193705 69 251 6.0 9.0 0.00 0.00 0.00 49 1006.2
20260504193205 69 276 4.0 8.0 0.00 0.00 0.00 50 1006.3
20260504192705 69 268 5.0 12.0 0.00 0.00 0.00 49 1006.4
20260504192205 69 269 4.0 9.0 0.00 0.00 0.00 52 1006.4
20260504190705 68 258 7.0 14.0 0.00 0.00 0.00 50 1006.5
20260504190205 70 239 7.0 13.0 0.00 0.00 0.00 48 1006.5
20260504185705 70 271 6.0 13.0 0.00 0.00 0.00 50 1006.5
20260504185205 70 256 6.0 10.0 0.00 0.00 0.00 53 1006.5
20260504184705 68 237 5.0 9.0 0.00 0.00 0.00 51 1006.6
20260504184205 68 285 3.0 8.0 0.00 0.00 0.00 52 1006.7
20260504183706 67 239 5.0 7.0 0.00 0.00 0.00 52 1006.7
20260504183205 67 249 6.0 9.0 0.00 0.00 0.00 52 1006.7
20260504182705 67 267 6.0 10.0 0.00 0.00 0.00 51 1006.7
20260504182205 67 260 6.0 9.0 0.00 0.00 0.00 51 1006.8
20260504181705 67 264 6.0 12.0 0.00 0.00 0.00 52 1006.8
20260504181205 67 272 8.0 14.0 0.00 0.00 0.00 51 1006.7
20260504180205 68 272 7.0 12.0 0.00 0.00 0.00 51 1006.8
20260504175705 68 270 6.0 13.0 0.00 0.00 0.00 50 1006.9
20260504175205 68 252 9.0 16.0 0.00 0.00 0.00 50 1007.0
20260504174705 69 261 8.0 13.0 0.00 0.00 0.00 49 1007.0
20260504174205 68 272 8.0 13.0 0.00 0.00 0.00 50 1007.0
20260504173705 67 216 4.0 8.0 0.00 0.00 0.00 52 1007.2
20260504173205 67 187 2.0 9.0 0.00 0.00 0.00 51 1007.2
20260504172705 67 227 5.0 14.0 0.00 0.00 0.00 52 1007.2
20260504172205 67 238 7.0 13.0 0.00 0.00 0.00 52 1007.3
20260504171205 67 227 2.0 5.0 0.00 0.00 0.00 53 1007.4
20260504170705 67 240 3.0 8.0 0.00 0.00 0.00 52 1007.4
20260504170205 67 217 6.0 12.0 0.00 0.00 0.00 51 1007.4
20260504160206 62 234 6.0 12.0 0.00 0.00 0.00 54 1007.9
20260504150705 62 210 3.0 10.0 0.00 0.00 0.00 57 1008.5
20260504150205 61 216 5.0 13.0 0.00 0.00 0.00 58 1008.5
20260504141204 59 226 3.0 12.0 0.00 0.00 0.00 59 1009.0
20260504140205 60 224 2.0 6.0 0.00 0.00 0.00 61 1009.1
20260504130704 57 241 5.0 12.0 0.00 0.00 0.00 61 1009.4
20260504130204 57 220 5.0 12.0 0.00 0.00 0.00 61 1009.4
20260504120205 52 223 4.0 9.0 0.00 0.00 0.00 68 1009.9
20260504110705 46 198 1.0 3.0 0.00 0.00 0.00 74 1010.2
20260504100204 44 193 3.0 6.0 0.00 0.00 0.00 76 1010.0